Location: �chemir�
(47.5500°N, 0.1667°W)
Time: 16:10:09
(UTC+02:00)

ISS - Pass Details

Date: 22 May 2021
Orbit: 419 x 422 km, 51.6° (Epoch: 25 June)

Event Time Altitude Azimuth Distance (km) Brightness Sun altitude
Rises 01:11:48 0° 293° (WNW) 2,375 0.6 -21.3°
Reaches altitude 10° 01:13:55 10° 295° (WNW) 1,509 -0.5 -21.4°
Enters shadow 01:16:59 66° 332° (NNW) 464 -3.5 -21.5°
